Regional Weather Roundup
Issued by NWS

Home | Current Version | Previous Version | Text Only | Print | Product List | Glossary On
Versions: 1 2 3 4 5 6 7 8 9 10 11 12 13 14 15 16 17 18 19 20 21 22 23 24 25 26 27 28 29 30 31 32 33 34 35 36 37 38 39 40 41 42 43 44 45 46 47 48 49 50
000
ASUS43 KLSX 050159
RWRMO

WEATHER SUMMARY FOR MISSOURI
NATIONAL WEATHER SERVICE SPRINGFIELD MO
900 PM CDT SAT JUL 04 2015

NOTE: "FAIR" INDICATES FEW OR NO CLOUDS BELOW 12,000 FEET WITH NO
       SIGNIFICANT WEATHER AND/OR OBSTRUCTIONS TO VISIBILITY.
       CURRENT SKY AND/OR WEATHER CONDITIONS ARE NOT AVAILABLE FOR
       CHILLICOTHE AND FARMINGTON.

MOZ001>031-035>038-043-044-053-054-050300-
...NORTHERN AND WESTERN MISSOURI...

CITY           SKY/WX    TMP DP  RH WIND       PRES   REMARKS
KANSAS CTY INT PTCLDY    75  63  66 SE6       29.95R
KANSAS C DTWN  PTCLDY    79  63  57 SE7       29.93R
LEE`S SUMMIT   PTCLDY    75  63  66 SE3       29.95S
ST JOSEPH      PTCLDY    75  64  68 SE7       29.94R
CHILLICOTHE      N/A     73  64  73 CALM      29.97R
KIRKSVILLE     LGT RAIN  71  61  70 E6        29.99S

$$
MOZ066>068-077>081-088>096-101>105-050300-
...SOUTHWEST MISSOURI...

CITY           SKY/WX    TMP DP  RH WIND       PRES   REMARKS
SPRINGFIELD    PTCLDY    77  68  73 CALM      29.97R
JOPLIN         PTCLDY    77  67  71 E5        29.95R

$$
MOZ032>034-039>042-045>050-055>058-069>072-050300-
...CENTRAL MISSOURI...

CITY           SKY/WX    TMP DP  RH WIND       PRES   REMARKS
COLUMBIA       CLEAR     74  66  76 E5        29.99R
JEFFERSON CITY CLEAR     76  65  68 E5        29.97R
ROLLA          CLEAR     72  67  84 E5        29.98S
SEDALIA        PTCLDY    75  66  73 SE3       29.98S
OSAGE BEACH    CLEAR     72  66  83 CALM      29.98R

$$
MOZ051-052-059>065-050300-
...EAST CENTRAL MISSOURI...

CITY           SKY/WX    TMP DP  RH WIND       PRES   REMARKS
ST LOUIS INTL  PTCLDY    76  62  62 E6        30.00R
SPIRIT OF STL  CLEAR     71  66  84 CALM      29.98R
ST CHARLES     CLEAR     74  68  81 E5        29.98S

$$
MOZ072>076-082>087-097>100-106>115-050300-
...SOUTH CENTRAL AND SOUTHEAST MISSOURI...

CITY           SKY/WX    TMP DP  RH WIND       PRES   REMARKS
CAPE GIRARDEAU NOT AVBL
FARMINGTON     PTCLDY    72  66  83 CALM      30.04R
POPLAR BLUFF   CLOUDY    76  71  85 SE3       29.97R HAZE
WEST PLAINS    PTCLDY    74  68  81 SE5       30.01R

$$



USA.gov is the U.S. government's official web portal to all federal, state and local government web resources and services.